Regional Weather Roundup
Issued by NWS Sterling, VA

Home | Current Version | Previous Version | Text Only | Print | Product List | Glossary On
Versions: 1 2 3 4 5 6 7 8 9 10 11 12 13 14 15 16 17 18 19 20 21 22 23 24 25 26 27
000
ASUS41 KLWX 010310
RWRLWX

REGIONAL WEATHER ROUNDUP
NATIONAL WEATHER SERVICE BALTIMORE MD/WASHINGTON DC
1100 PM EDT TUE MAY 31 2016

Note: "FAIR" indicates few or no clouds below 12,000 feet
with no significant weather and/or obstructions to visibility.
 TC=TEMPERATURE CELSIUS

 * =Non NWS site. Station does not report precipitation (e.g. rain,
    snow, etc.), thunder, or fog.

DCZ001-MDZ009-015-VAZ040>042-051-053>054-010400-
WASHINGTON METRO

CITY           SKY/WX    TMP DP  RH WIND       PRES   REMARKS
WASHINGTON NAT FAIR      75  68  78 S5        29.99S
DULLES         FAIR      74  67  78 S3        30.00R
ANDREWS AFB    CLEAR     69  67  92 S2        29.98F
FT BELVOIR     FAIR      69  67  93 CALM      29.99S
QUANTICO       FAIR      73  70  90 NW6       30.00R
COLLEGE PARK*  FAIR      68  64  88 CALM      29.98F
LEESBURG*      FAIR      70  66  88 CALM      30.01S
MANASSAS*      FAIR      72  70  94 CALM      29.99S

$$

MDZ006>007-011-014-010400-
BALTIMORE METRO

CITY           SKY/WX    TMP DP  RH WIND       PRES   REMARKS
BWI AIRPORT    PTCLDY    70  65  84 CALM      29.98S
MD SCIENCE CTR   N/A     78  62  57 MISG      29.98S
MARTIN STATE   PTCLDY    72  70  94 CALM      29.99S
ANNAPOLIS      CLEAR     71  69  93 CALM      29.98S
FORT MEADE*    CLEAR     64  63  94 CALM      30.01S

$$

MDZ012-015-019>023-010400-
MARYLAND EASTERN SHORE

CITY           SKY/WX    TMP DP  RH WIND       PRES   REMARKS
OCEAN CITY     PTCLDY    69  67  93 CALM      30.00S
SALISBURY      CLEAR     69  68  96 S3        30.00S
BAY BRIDGE AP* CLEAR     73  68  83 CALM      29.99S
CAMBRIDGE*       N/A     70  68  94 CALM      29.99S
EASTON*        CLEAR     74  72  95 CALM      30.03S

$$

MDZ017>025-010400-
SOUTHERN MARYLAND

CITY           SKY/WX    TMP DP  RH WIND       PRES   REMARKS
PATUXENT RIVER PTCLDY    70  66  87 S5        29.99R
ST INIGOES     CLEAR     71  68  90 CALM      29.99R
LEONARDTOWN*   CLEAR     68  64  88 CALM      30.01S

$$

MDZ003>005-010400-
NORTH CENTRAL MARYLAND

CITY           SKY/WX    TMP DP  RH WIND       PRES   REMARKS
FREDERICK*     CLEAR     64  64 100 CALM      30.02S
HAGERSTOWN APT CLOUDY    75  57  53 E6        30.00S
WESTMINSTER*   CLEAR     72  68  88 CALM      30.01F

$$

MDZ501>502-010400-
WESTERN MARYLAND

CITY           SKY/WX    TMP DP  RH WIND       PRES   REMARKS
OAKLAND*       CLEAR     64  54  68 E5        30.11S
CUMBERLAND*    CLEAR     70  64  83 CALM      30.06R

$$

VAZ025>031-010400-
SHENANDOAH VALLEY

CITY           SKY/WX    TMP DP  RH WIND       PRES   REMARKS
WINCHESTER*    FAIR      68  61  77 CALM      30.01S
FRONT ROYAL*   FAIR      64  61  88 CALM      30.01R
LURAY*         FAIR      64  63  94 CALM      30.03R
NEW MARKET*    MOCLDY    64  60  88 CALM      30.02R
STAUNTON*      FAIR      65  61  85 CALM      30.06S
WAYNESBORO*    FAIR      69  63  83 CALM      30.05R

$$

WVZ021-048>050-054>055-010400-
EASTERN WEST VIRGINIA PANHANDLE

CITY           SKY/WX    TMP DP  RH WIND       PRES   REMARKS
MARTINSBURG    FAIR      66  61  84 CALM      30.00R
PETERSBURG*    FAIR      66  63  89 CALM      30.04S

$$

VAZ036>039-050-010400-
CENTRAL FOOTHILLS

CITY           SKY/WX    TMP DP  RH WIND       PRES   REMARKS
CHARLOTTESVILL FAIR      72  63  73 N3        30.01R
CULPEPER*      FAIR      67  67  98 CALM      30.01S
ORANGE*        FAIR      70  70 100 CALM      30.03R
GORDONSVILLE*  FAIR      68  67  98 CALM      30.01R
WARRENTON*     FAIR      67  61  81 CALM      30.00S

$$

VAZ055>057-010400-
NORTH AND CENTRAL PIEDMONT

CITY           SKY/WX    TMP DP  RH WIND       PRES   REMARKS
FREDERICKSBRG* FAIR      71  71 100 CALM      29.99S
STAFFORD*        N/A     67  66  95 CALM      30.04R

$$

NCZ024-NYZ072-PAZ021-071-VAZ022-071-010400-
OTHER REGIONAL OBSERVATIONS

CITY           SKY/WX    TMP DP  RH WIND       PRES   REMARKS
NEW YORK CITY  PTCLDY    74  64  71 W7        30.00R
PHILADELPHIA   MOCLDY    74  65  73 S7        29.99R
PITTSBURGH     MOCLDY    74  54  49 NE6       30.03R
ROANOKE        FAIR      74  65  73 E6        30.05R
RICHMOND       FAIR      71  67  87 SE6       30.00R
RALEIGH        CLOUDY    75  69  81 SE5       29.99R

$$

ANZ530>537-010400-
MARINE OBSERVATIONS

STATION/POSITION TIME  TEMP    WIND        PRES
                       AIR SEA DIR/SP/G
                 (UTC) (F)     (DEG/KT/KT) (MB)
THOMAS PT LIGHT  0300   75 70  180/  4/  4 1016.7R
BALT KEY BRIDGE  0200   77                 1015.1R
COVE POINT       0200   72                 1016.1R
LEWISETTA        0200      76                N/A
SOLOMONS ISLAND  0200      70                N/A

$$





USA.gov is the U.S. government's official web portal to all federal, state and local government web resources and services.